Regional Weather Roundup
Issued by NWS Albany, NY

Home | Current Version | Previous Version | Text Only | Print | Product List | Glossary On
Versions: 1 2 3 4 5 6 7 8 9 10 11 12 13 14 15 16 17 18 19 20 21 22 23 24 25 26 27 28 29 30 31 32 33 34 35 36 37 38 39 40 41 42 43 44 45 46 47
000
ASUS41 KALY 291510
RWRALY

NEW YORK STATE HOURLY WEATHER ROUNDUP
NATIONAL WEATHER SERVICE ALBANY NY
1000 AM EST THU JAN 29 2015

NOTE: "FAIR" INDICATES FEW OR NO CLOUDS BELOW 12,000 FEET WITH NO
SIGNIFICANT WEATHER AND/OR NO OBSTRUCTIONS TO VISIBILITY.

NYZ032-033-038>043-046>054-057>066-NYZ062>081-291600-
EAST


CITY           SKY/WX    TMP DP  RH WIND       PRES   REMARKS
ALBANY         PTSUNNY    8  -1  66 W3        30.31F
GLENS FALLS    SUNNY      7   1  76 CALM      30.29F
POUGHKEEPSIE   SUNNY     14   2  58 CALM      30.33F
NEWBURGH       SUNNY     16   3  57 CALM      30.31F
MONTGOMERY     SUNNY     11   1  64 CALM      30.29F
WHITE PLAINS   SUNNY     25  -1  32 E3        30.28F
ISLIP          PTSUNNY   26  10  50 N6        30.31S WCI  19
NEW YORK CITY  PTSUNNY   25   2  37 NE5       30.32F WCI  19
CENTRAL PARK   SUNNY     27   5  39 N5        30.33F WCI  22
$$

NYZ005>009-017-018-044>046-055-056-291600-
CENTRAL


CITY           SKY/WX    TMP DP  RH WIND       PRES   REMARKS
FULTON         PTSUNNY   16   3  56 SE10      30.12F WCI   4
SYRACUSE       CLOUDY    13   5  70 E5        30.15F WCI   5
ROME           MOSUNNY   15   2  56 SE12      30.21F WCI   2
ELMIRA         CLOUDY     6   3  87 CALM      30.16F
BINGHAMTON     PTSUNNY   13   6  74 S7        30.12F WCI   3
MONTICELLO     SUNNY     12   5  73 CALM      30.21F
$$

NYZ026>034-041>043-291600-
NORTH


CITY           SKY/WX    TMP DP  RH WIND       PRES   REMARKS
WATERTOWN      MOSUNNY   17   3  54 E6        30.11F WCI   9
FORT DRUM      NOT AVBL
MASSENA        SUNNY     13  -2  51 NE6       30.20F WCI   4
SARANAC LAKE   SUNNY      4  -5  66 CALM      30.09F
PLATTSBURGH    SUNNY     15   4  61 S6        30.23F WCI   6
$$

NYZ001>004-010>016-019>021-291600-
WEST


CITY           SKY/WX    TMP DP  RH WIND       PRES   REMARKS
NIAGARA FALLS  CLOUDY    28   9  44 SE9       29.94F WCI  19
BUFFALO        CLOUDY    29   8  41 SE10      29.94F WCI  20
DUNKIRK        CLOUDY    34   8  33 S20G33    29.89F WCI  23
JAMESTOWN      CLOUDY    27   1  33 S17       29.91F WCI  14
WELLSVILLE     CLOUDY    29  -4  24 S13G18    29.98F WCI  19
ROCHESTER      CLOUDY    21   7  54 SE7       30.01F WCI  12
PENN YAN       CLOUDY    21   4  47 SW17G25   30.08F WCI   7
$$

             KEY
       WCI = WIND CHILL INDEX
       VSB = VISIBILITY
       HX  = HEAT INDEX
$$


USA.gov is the U.S. government's official web portal to all federal, state and local government web resources and services.